Regional Weather Roundup
Issued by NWS Goodland, KS

Home | Current Version | Previous Version | Graphics & Text | Print | Product List | Glossary On
Versions: 1 2 3 4 5 6 7 8 9 10 11 12 13 14 15 16 17 18 19 20 21 22 23 24 25 26 27 28 29 30 31 32 33 34 35 36 37 38 39 40 41 42 43 44 45 46 47 48 49 50
000
ASUS43 KGLD 021959
RWRGLD

GOODLAND FORECAST AREA HOURLY WEATHER ROUNDUP
NATIONAL WEATHER SERVICE GOODLAND KS
200 PM MDT THU JUL 02 2015

...OFFICIAL OBSERVATIONS...

CITY           SKY/WX    TMP DP  RH WIND       PRES   REMARKS
GOODLAND KS    MOSUNNY   83  58  42 N12G24    30.08F
HILL CITY KS   LGT RAIN  87  60  40 N10       29.99F
IMPERIAL NEB   MOSUNNY   87  58  37 N12       30.06F
MCCOOK NEB     MOSUNNY   87  60  40 N13G21    30.00F
AKRON CO       SUNNY     79  56  45 NW13G20   30.16F
BURLINGTON CO  SUNNY     81  58  45 N17G25    30.12F
LIMON CO       SUNNY     76  56  49 N7        30.21F
$$

...UNOFFICIAL OBSERVATIONS...

CITY           SKY/WX    TMP DP  RH WIND       PRES   REMARKS
COLBY KS       SUNNY     88  59  37 N18G26    30.06S
GOVE KS          N/A     85  32  15 MISG        N/A
NORTON KS      PTSUNNY   82  54  36 N12G20    29.98F
SHARON SPRINGS   N/A     80  61  51 NW10        N/A
KIT CARSON CO    N/A     81  58  45 MISG        N/A
YUMA CO          N/A     82  58  44 N10         N/A
$$


USA.gov is the U.S. government's official web portal to all federal, state and local government web resources and services.